Time,TemperatureF,DewpointF,PressureIn,WindDirection,WindDirectionDegrees,WindSpeedMPH,WindSpeedGustMPH,Humidity,HourlyPrecipIn,Conditions,Clouds,dailyrainin,SoftwareType,DateUTC
2013-08-21 00:09:00,68.5,67.0,30.38,SE,128,0.0,0.0,93,0.00,,,0.00,weatherlink.com 1.10,2013-08-21 04:09:00,
2013-08-21 00:25:00,68.1,66.0,30.38,SE,128,0.0,0.0,94,0.00,,,0.00,weatherlink.com 1.10,2013-08-21 04:25:00,
2013-08-21 00:40:00,67.6,66.0,30.39,SE,128,0.0,0.0,94,0.00,,,0.00,weatherlink.com 1.10,2013-08-21 04:40:00,
2013-08-21 00:55:00,67.5,66.0,30.38,SE,128,0.0,0.0,95,0.00,,,0.00,weatherlink.com 1.10,2013-08-21 04:55:00,
2013-08-21 01:10:00,67.5,66.0,30.39,SE,128,0.0,0.0,95,0.00,,,0.00,weatherlink.com 1.10,2013-08-21 05:10:00,
2013-08-21 01:25:00,67.2,66.0,30.39,SE,128,0.0,0.0,95,0.00,,,0.00,weatherlink.com 1.10,2013-08-21 05:25:00,
2013-08-21 01:40:00,66.5,65.0,30.39,SE,128,0.0,0.0,95,0.00,,,0.00,weatherlink.com 1.10,2013-08-21 05:40:00,
2013-08-21 01:55:00,66.1,65.0,30.39,SE,128,0.0,0.0,95,0.00,,,0.00,weatherlink.com 1.10,2013-08-21 05:55:00,
2013-08-21 02:10:00,66.2,65.0,30.39,SE,128,0.0,0.0,96,0.00,,,0.00,weatherlink.com 1.10,2013-08-21 06:10:00,
2013-08-21 02:25:00,65.8,65.0,30.39,SE,128,0.0,0.0,96,0.00,,,0.00,weatherlink.com 1.10,2013-08-21 06:25:00,
2013-08-21 02:40:00,65.4,64.0,30.39,SE,128,0.0,0.0,96,0.00,,,0.00,weatherlink.com 1.10,2013-08-21 06:40:00,
2013-08-21 02:55:00,65.4,64.0,30.39,SE,128,0.0,0.0,96,0.00,,,0.00,weatherlink.com 1.10,2013-08-21 06:55:00,
2013-08-21 03:10:00,65.2,64.0,30.39,SE,128,0.0,0.0,96,0.00,,,0.00,weatherlink.com 1.10,2013-08-21 07:10:00,
2013-08-21 03:25:00,65.0,64.0,30.39,SE,128,0.0,0.0,96,0.00,,,0.00,weatherlink.com 1.10,2013-08-21 07:25:00,
2013-08-21 03:40:00,64.8,64.0,30.38,SE,128,0.0,0.0,96,0.00,,,0.00,weatherlink.com 1.10,2013-08-21 07:40:00,
2013-08-21 03:55:00,64.7,64.0,30.39,SE,128,0.0,0.0,97,0.00,,,0.00,weatherlink.com 1.10,2013-08-21 07:55:00,
2013-08-21 04:10:00,65.0,64.0,30.38,SE,128,0.0,0.0,97,0.00,,,0.00,weatherlink.com 1.10,2013-08-21 08:10:00,
2013-08-21 04:25:00,65.0,64.0,30.38,SE,128,0.0,0.0,97,0.00,,,0.00,weatherlink.com 1.10,2013-08-21 08:25:00,
2013-08-21 04:40:00,64.7,64.0,30.39,SE,128,0.0,0.0,96,0.00,,,0.00,weatherlink.com 1.10,2013-08-21 08:40:00,
2013-08-21 04:55:00,64.1,63.0,30.39,SE,128,0.0,0.0,97,0.00,,,0.00,weatherlink.com 1.10,2013-08-21 08:55:00,
2013-08-21 05:10:00,63.9,63.0,30.39,SE,128,0.0,0.0,97,0.00,,,0.00,weatherlink.com 1.10,2013-08-21 09:10:00,
2013-08-21 05:25:00,63.8,63.0,30.39,SE,128,0.0,0.0,97,0.00,,,0.00,weatherlink.com 1.10,2013-08-21 09:25:00,
2013-08-21 05:40:00,63.5,63.0,30.39,SSE,152,0.0,0.0,97,0.00,,,0.00,weatherlink.com 1.10,2013-08-21 09:40:00,
2013-08-21 05:55:00,63.7,63.0,30.39,SSE,148,0.0,0.0,97,0.00,,,0.00,weatherlink.com 1.10,2013-08-21 09:55:00,
2013-08-21 06:10:00,63.4,63.0,30.39,South,181,0.0,0.0,97,0.00,,,0.00,weatherlink.com 1.10,2013-08-21 10:10:00,
2013-08-21 06:25:00,63.2,62.0,30.40,WNW,288,0.0,2.0,97,0.00,,,0.00,weatherlink.com 1.10,2013-08-21 10:25:00,
2013-08-21 06:40:00,63.1,62.0,30.40,WNW,286,0.0,0.0,97,0.00,,,0.00,weatherlink.com 1.10,2013-08-21 10:40:00,
2013-08-21 06:55:00,63.1,62.0,30.41,SSW,211,0.0,1.0,97,0.00,,,0.00,weatherlink.com 1.10,2013-08-21 10:55:00,
2013-08-21 07:10:00,63.2,62.0,30.41,WSW,255,0.0,1.0,97,0.00,,,0.00,weatherlink.com 1.10,2013-08-21 11:10:00,
2013-08-21 07:25:00,63.5,63.0,30.42,SW,219,1.0,1.0,98,0.00,,,0.00,weatherlink.com 1.10,2013-08-21 11:25:00,
2013-08-21 07:40:00,64.1,64.0,30.42,SW,232,0.0,4.0,98,0.00,,,0.00,weatherlink.com 1.10,2013-08-21 11:40:00,
2013-08-21 07:55:00,64.7,64.0,30.42,West,273,1.0,4.0,98,0.00,,,0.00,weatherlink.com 1.10,2013-08-21 11:55:00,
2013-08-21 08:10:00,65.2,65.0,30.43,SW,227,0.0,2.0,98,0.00,,,0.00,weatherlink.com 1.10,2013-08-21 12:10:00,
2013-08-21 08:25:00,65.8,65.0,30.43,West,260,0.0,2.0,98,0.00,,,0.00,weatherlink.com 1.10,2013-08-21 12:25:00,
2013-08-21 08:40:00,66.5,66.0,30.43,WSW,254,0.0,2.0,98,0.00,,,0.00,weatherlink.com 1.10,2013-08-21 12:40:00,
2013-08-21 08:55:00,67.0,67.0,30.43,West,265,2.0,3.0,98,0.00,,,0.00,weatherlink.com 1.10,2013-08-21 12:55:00,
2013-08-21 09:10:00,67.7,67.0,30.43,WNW,282,1.0,3.0,98,0.00,,,0.00,weatherlink.com 1.10,2013-08-21 13:10:00,
2013-08-21 09:25:00,67.8,67.0,30.43,West,268,0.0,4.0,97,0.00,,,0.00,weatherlink.com 1.10,2013-08-21 13:25:00,
2013-08-21 09:40:00,68.3,68.0,30.43,SW,235,2.0,4.0,97,0.00,,,0.00,weatherlink.com 1.10,2013-08-21 13:40:00,
2013-08-21 09:55:00,69.1,68.0,30.42,WSW,246,1.0,3.0,97,0.00,,,0.00,weatherlink.com 1.10,2013-08-21 13:55:00,
2013-08-21 10:10:00,69.8,68.0,30.42,SSE,152,5.0,6.0,95,0.00,,,0.00,weatherlink.com 1.10,2013-08-21 14:10:00,
2013-08-21 10:25:00,71.1,69.0,30.42,SW,223,0.0,5.0,93,0.00,,,0.00,weatherlink.com 1.10,2013-08-21 14:25:00,
2013-08-21 10:41:00,72.4,70.0,30.42,WNW,293,5.0,5.0,91,0.00,,,0.00,weatherlink.com 1.10,2013-08-21 14:41:00,
2013-08-21 10:56:00,74.7,71.0,30.42,NW,319,3.0,5.0,87,0.00,,,0.00,weatherlink.com 1.10,2013-08-21 14:56:00,
2013-08-21 11:11:00,75.9,71.0,30.41,West,261,0.0,4.0,85,0.00,,,0.00,weatherlink.com 1.10,2013-08-21 15:11:00,
2013-08-21 11:26:00,77.7,72.0,30.41,SSW,211,5.0,7.0,82,0.00,,,0.00,weatherlink.com 1.10,2013-08-21 15:26:00,
2013-08-21 11:41:00,77.3,71.0,30.41,WSW,244,1.0,9.0,82,0.00,,,0.00,weatherlink.com 1.10,2013-08-21 15:41:00,
2013-08-21 11:56:00,78.1,72.0,30.40,WSW,241,6.0,8.0,80,0.00,,,0.00,weatherlink.com 1.10,2013-08-21 15:56:00,
2013-08-21 12:11:00,79.6,71.0,30.40,SSW,194,1.0,9.0,76,0.00,,,0.00,weatherlink.com 1.10,2013-08-21 16:11:00,
2013-08-21 12:26:00,80.1,70.0,30.40,WSW,248,4.0,10.0,72,0.00,,,0.00,weatherlink.com 1.10,2013-08-21 16:26:00,
2013-08-21 12:41:00,80.6,70.0,30.40,West,263,2.0,10.0,70,0.00,,,0.00,weatherlink.com 1.10,2013-08-21 16:41:00,
2013-08-21 12:56:00,80.8,68.0,30.39,SSW,207,5.0,12.0,66,0.00,,,0.00,weatherlink.com 1.10,2013-08-21 16:56:00,
2013-08-21 13:11:00,81.4,68.0,30.38,WSW,246,1.0,10.0,63,0.00,,,0.00,weatherlink.com 1.10,2013-08-21 17:11:00,
2013-08-21 13:26:00,82.7,70.0,30.37,South,191,4.0,9.0,65,0.00,,,0.00,weatherlink.com 1.10,2013-08-21 17:26:00,
2013-08-21 13:41:00,83.0,69.0,30.37,SSW,203,10.0,10.0,62,0.00,,,0.00,weatherlink.com 1.10,2013-08-21 17:41:00,
2013-08-21 13:56:00,83.0,68.0,30.36,SE,138,3.0,10.0,61,0.00,,,0.00,weatherlink.com 1.10,2013-08-21 17:56:00,
2013-08-21 14:11:00,83.0,68.0,30.36,WSW,249,2.0,12.0,60,0.00,,,0.00,weatherlink.com 1.10,2013-08-21 18:11:00,
2013-08-21 14:26:00,84.1,69.0,30.35,WSW,257,0.0,7.0,60,0.00,,,0.00,weatherlink.com 1.10,2013-08-21 18:26:00,
2013-08-21 14:41:00,83.9,68.0,30.34,West,268,0.0,4.0,60,0.00,,,0.00,weatherlink.com 1.10,2013-08-21 18:41:00,
2013-08-21 14:56:00,84.8,70.0,30.33,SW,227,10.0,10.0,61,0.00,,,0.00,weatherlink.com 1.10,2013-08-21 18:56:00,
2013-08-21 15:11:00,83.5,70.0,30.32,SSE,167,0.0,5.0,64,0.00,,,0.00,weatherlink.com 1.10,2013-08-21 19:11:00,
2013-08-21 15:26:00,83.4,70.0,30.33,WSW,239,0.0,6.0,64,0.00,,,0.00,weatherlink.com 1.10,2013-08-21 19:26:00,
2013-08-21 15:41:00,83.4,70.0,30.32,SSW,202,0.0,7.0,65,0.00,,,0.00,weatherlink.com 1.10,2013-08-21 19:41:00,
2013-08-21 15:56:00,84.3,70.0,30.31,SE,124,8.0,8.0,63,0.00,,,0.00,weatherlink.com 1.10,2013-08-21 19:56:00,
2013-08-21 16:11:00,84.2,69.0,30.31,SSE,157,0.0,8.0,61,0.00,,,0.00,weatherlink.com 1.10,2013-08-21 20:11:00,
2013-08-21 16:26:00,84.2,68.0,30.31,South,183,0.0,6.0,59,0.00,,,0.00,weatherlink.com 1.10,2013-08-21 20:26:00,
2013-08-21 16:41:00,83.7,69.0,30.30,SE,146,0.0,5.0,62,0.00,,,0.00,weatherlink.com 1.10,2013-08-21 20:41:00,
2013-08-21 16:56:00,82.1,70.0,30.30,SSE,161,0.0,6.0,67,0.00,,,0.00,weatherlink.com 1.10,2013-08-21 20:56:00,
2013-08-21 17:11:00,78.1,70.0,30.32,West,273,15.0,15.0,77,0.00,,,0.00,weatherlink.com 1.10,2013-08-21 21:11:00,
2013-08-21 17:27:00,67.6,64.0,30.41,South,182,11.0,46.0,87,0.41,,,0.41,weatherlink.com 1.10,2013-08-21 21:27:00,
2013-08-21 17:42:00,65.8,64.0,30.36,South,188,4.0,10.0,93,0.86,,,0.86,weatherlink.com 1.10,2013-08-21 21:42:00,
2013-08-21 17:57:00,65.5,64.0,30.35,SSE,157,8.0,14.0,94,0.97,,,0.97,weatherlink.com 1.10,2013-08-21 21:57:00,
2013-08-21 18:12:00,65.6,64.0,30.34,SSW,206,9.0,10.0,95,0.99,,,0.99,weatherlink.com 1.10,2013-08-21 22:12:00,
2013-08-21 18:27:00,65.4,64.0,30.34,SW,229,7.0,11.0,95,0.58,,,0.99,weatherlink.com 1.10,2013-08-21 22:27:00,
2013-08-21 18:45:00,65.3,64.0,30.33,SSW,209,1.0,8.0,95,0.10,,,1.00,weatherlink.com 1.10,2013-08-21 22:45:00,
2013-08-21 18:56:00,65.5,64.0,30.33,SW,232,3.0,6.0,95,0.03,,,1.00,weatherlink.com 1.10,2013-08-21 22:56:00,
2013-08-21 19:11:00,65.7,64.0,30.34,SSW,213,2.0,7.0,95,0.01,,,1.00,weatherlink.com 1.10,2013-08-21 23:11:00,
2013-08-21 19:26:00,66.3,65.0,30.35,WSW,253,5.0,11.0,96,0.02,,,1.01,weatherlink.com 1.10,2013-08-21 23:26:00,
2013-08-21 19:41:00,66.6,65.0,30.34,WSW,248,1.0,8.0,95,0.04,,,1.03,weatherlink.com 1.10,2013-08-21 23:41:00,
2013-08-21 19:56:00,66.5,65.0,30.34,West,279,2.0,3.0,95,0.05,,,1.05,weatherlink.com 1.10,2013-08-21 23:56:00,
2013-08-21 20:11:00,66.4,65.0,30.33,West,263,4.0,5.0,96,0.05,,,1.05,weatherlink.com 1.10,2013-08-22 00:11:00,
2013-08-21 20:26:00,66.3,65.0,30.33,SW,229,0.0,6.0,96,0.04,,,1.05,weatherlink.com 1.10,2013-08-22 00:26:00,
2013-08-21 20:41:00,66.1,65.0,30.33,WSW,250,1.0,5.0,96,0.02,,,1.05,weatherlink.com 1.10,2013-08-22 00:41:00,
2013-08-21 20:56:00,66.0,65.0,30.33,WSW,250,0.0,1.0,96,0.00,,,1.05,weatherlink.com 1.10,2013-08-22 00:56:00,
2013-08-21 21:11:00,65.9,65.0,30.35,WSW,251,0.0,1.0,96,0.00,,,1.05,weatherlink.com 1.10,2013-08-22 01:11:00,
2013-08-21 21:26:00,65.9,65.0,30.35,WSW,251,0.0,0.0,97,0.00,,,1.05,weatherlink.com 1.10,2013-08-22 01:26:00,
2013-08-21 21:41:00,65.9,65.0,30.35,WSW,251,0.0,0.0,97,0.00,,,1.05,weatherlink.com 1.10,2013-08-22 01:41:00,
2013-08-21 21:56:00,65.8,65.0,30.34,WSW,251,0.0,0.0,97,0.00,,,1.05,weatherlink.com 1.10,2013-08-22 01:56:00,
2013-08-21 22:11:00,65.8,65.0,30.34,WSW,251,0.0,1.0,97,0.00,,,1.05,weatherlink.com 1.10,2013-08-22 02:11:00,
2013-08-21 22:26:00,65.8,65.0,30.34,West,275,4.0,4.0,97,0.00,,,1.05,weatherlink.com 1.10,2013-08-22 02:26:00,
2013-08-21 23:00:00,65.3,65.0,30.34,SW,219,0.0,5.0,97,0.00,,,1.05,weatherlink.com 1.10,2013-08-22 03:00:00,
2013-08-21 23:11:00,65.3,65.0,30.35,South,190,1.0,6.0,97,0.00,,,1.05,weatherlink.com 1.10,2013-08-22 03:11:00,
2013-08-21 23:26:00,65.2,64.0,30.35,South,178,0.0,2.0,97,0.00,,,1.05,weatherlink.com 1.10,2013-08-22 03:26:00,
2013-08-21 23:41:00,65.1,64.0,30.34,South,186,2.0,5.0,97,0.00,,,1.05,weatherlink.com 1.10,2013-08-22 03:41:00,
2013-08-21 23:56:00,65.4,65.0,30.33,South,188,5.0,11.0,97,0.00,,,1.05,weatherlink.com 1.10,2013-08-22 03:56:00,